Погода Марьина Горка

Погода Марьина Горка : погода сейчас, прогноз погоды и архив. Всё, что Вы хотите узнать о погоде Марьина Горка!

Хотите узнать прогноз погоды Марьина Горка? Тогда Вам сюда: Погода Марьина Горка

Поиск расширенной информации на нашем сайте:

Другие новости

Новости СМИ2

Главная страница сайта

Новости сайта

03.07.2017

Напоминаем, что на нашем специализированном сайте Метеоцентр.Азия вы можете получить высокодетализированные автоматические прогнозы погоды по пунктам России, СНГ и мира в авиационном формате (включающие направление и скорость ветра, видимость, явления погоды, количество и форму облачности, нижнюю и верхнюю границу облачности).


Погода Марьина Горка - сегодня

Время (UTC), дата Ветер
(°,м/с) 
Видим.   Явления Облачность Т
(°С)
Тd
(°С)
f(%) Тe
(°С)
Pmin
(гПа)
dP
(гПа)
Po
(мм)
O2
(г/м3)
Тmin Tmax R s Состояние
почвы
21 18.09.17 280 (З) 9-17{21}  13000 м    9/9 600 м 
[Sc]
+11.2 +6.7 74 +9  1008.7  3.5  741  286           
00 19.09.17 270 (З) 6-11{17}  12000 м    9/9 660 м 
[Sc]
+11.3 +8.3 82 +10  1011  2.3  742  286           
03 19.09.17 270 (З) 5{11}  12000 м    9/8 600 м средняя 
[Sc|Ac und]
+10.4 +8.2 86 +9  1013.5  2.4  744  287           
06 19.09.17 250 (З) 15000 м    1/1 300 м 
[St]
+10.8 +8.7 87 +10  1015.5  746  288  +8.9         
09 19.09.17 250 (З) 17000 м    6/5 600 м верхняя 
[Cu med, cong|Ci fib]
+14.4 +9.4 72 +15  1017  1.7  747  284           
12 19.09.17 310 (СЗ) 17000 м    8/5 600 м верхняя 
[Cu med, cong|Ci fib]
+15.8 +9.2 65 +16  1017.7  0.8  748  283           
15 19.09.17 260 (З) 20000 м    8/5 600 м верхняя 
[Cu med, cong|Ci fib]
+16 +8.2 60 +16  1018.2  0.5  748  283           
18 19.09.17 170 (Ю) 11000 м    6/3 600 м средняя, верхняя 
[Sc|Ac und|Ci fib]
+11.3 +9.4 88 +12  1019.2  0.6  748  288    +16.9       
21 19.09.17 170 (Ю) 10 км    8/5 600 м средняя 
[Sc|Ac und]
+10.9 +9.2 89 +12  1019.8  0.6  749  289           
00 20.09.17 120 (ЮВ) 12000 м    6/3 600 м средняя 
[Sc|Ac und]
+10.3 +8.2 87 +11  1019.7  -0.1  749  289           
06 20.09.17 100 (В) 8000 м  в посл. час ливневой дождь  10/5 600 м кучево-дожд., средняя 
[Cb cap|As op]
+10.3 +10 98 +12  1020.1  0.4  749  289  +9.9       
09 20.09.17 100 (В) 8000 м  дымка{ливн. осадки}  10/4 300 м средняя 
[St|As op]
+11 +10.6 97 +13  1019.7  -0.4  749  288      0.4     
12 20.09.17 090 (В) 10 км  {ливн. осадки}  10/4 300 м средняя 
[St|As op]
+13 +11.7 92 +17  1018.7  -0.8  748  286      0.2     
15 20.09.17 080 (В) 11000 м    9/5 600 м средняя, верхняя 
[Sc|Ac und|Ci fib]
+14.1 +12.1 88 +19  1017.9  -0.7  748  284      0.7     
18 20.09.17 090 (В) 10 км    9/5 600 м средняя 
[Sc|Ac und]
+12.7 +11.1 90 +16  1018.2  0.2  748  286    +14.3  0.7     
21 20.09.17 080 (В) 8000 м  дымка  3/3 600 м средняя 
[Sc|Ac und]
+11.4 +10.1 92 +13  1017.6  -0.7  747  287           
00 21.09.17 090 (В) 7000 м  дымка  9/5 600 м средняя 
[Sc|Ac und]
+10.6 +9.7 94 +11  1017.4  -0.3  747  288           
03 21.09.17 070 (В) 6000 м  дымка{ливн. осадки}  9/5 600 м средняя 
[Sc|Ac und]
+10.8 +10 95 +11  1015.9  -1.4  746  287      0.3     
06 21.09.17 080 (В) 6-11{13}  7000 м  в посл. час ливневой дождь  9/4 300 м кучево-дожд., средняя 
[Cb cap|Ac und]
+11 +10.5 97 +12  1013.6  -2.3  744  286  +10.5       
09 21.09.17 100 (В) 3{11}  10 км    9/9 500 м 
[Sc]
+13.9 +12.1 89 +18  1013.7  0.4  745  283           
12 21.09.17 100 (В) 5{10}  16000 м    9/5 600 м средняя, верхняя 
[Sc|Ac und|Cs]
+16.9 +13 78 +23  1012.3  -1.2  744  280           
15 21.09.17 120 (ЮВ) 17000 м    8/3 600 м средняя, верхняя 
[Sc|Ac und|Cs]
+18 +13.7 76 +26  1012.2  744  278           
18 21.09.17 070 (В) 12000 м    6/3 600 м средняя 
[Sc|Ac und]
+15.2 +13.2 88 +22  1013.3  0.9  744  281    +18.4       
21 21.09.17 100 (В) 9000 м  гроза без осадков  9/6 600 м кучево-дожд., средняя 
[Cb cap|Ac und]
+15.7 +14.1 90 +23  1012.7  -0.6  744  281           
00 22.09.17 080 (В) 5000 м  в посл. час гроза{ливн. осадки}  9/6 600 м кучево-дожд., средняя 
[Cb cap|Ac und]
+14.6 +14.2 97 +22  1014.3  1.5  745  282         
Время (UTC), дата Ветер
(°,м/с) 
Видим.   Явления Облачность Т
(°С)
Тd
(°С)
f(%) Тe
(°С)
Pmin
(гПа)
dP
(гПа)
Po
(мм)
O2
(г/м3)
Тmin Tmax R s Состояние
почвы

Для получения пояснительной информации подведите курсор к названию столбца.

ПОГОДА Марьина Горка - архив

Всё, что Вы хотите узнать о погоде Марьина Горка - удобно и подробно!

Выберите нужную дату (начиная с 1 января 2015* года) и нажмите кнопку "Найти".
Будут отображены архивные сводки погоды по пункту Марьина Горка, начиная с указанной даты.


Отображать данные в формате CSV (для использования в таблицах Excel)


Внимание! Наш архив погоды предназначен исключительно для личного некоммерческого использования в познавательных целях. Если Вам необходимы официальные справки о состоянии погоды (для производственных, юридических, коммерческих и т.п. целей), обращайтесь в органы Росгидромета.

*Примечание: данная дата относится к архиву по метеостанциям СССР (Россия, СНГ, Балтия).
Архив по метеостанциям Зарубежной Европы и Азии (кроме Китая) хранится 10 дней, по другим регионам земного шара (Китай, Африка, Америка, Австралия, Океания) - 1 день.

Марьина Горка - район местоположения метеостанции


Название, широта, долгота, высота метеостанции:
Марьина Горка 55.4°ш. 28.1°д. 177 м над ур. моря [Беларусь]

Дополнительная информация

В oтличие oт бoльшинства пoгoдных сайтoв мы публикуем пoдрoбную метеoинфoрмацию в детальнoм прoфессиoнальнoм фoрмате.

Характеристики температуры и влажнoсти вoздуха измеряются на высoте 2 м в тени вдали oт зданий и деревьев.
Скoрoсть ветра измеряется на высoте 10 м (на урoвне рoста челoвека скoрoсть ветра ниже в 1.5-2 раза). Если метеoстанция нахoдится в гoрoде или в лесу, тo скoрoсть ветра занижена на 2-4 м/с пo сравнению с oткрытым местoм. Скoрoсть ветра над акватoриями крупных рек и oзёр, а также на вершинах хoлмoв на 2-5 м/с выше, чем в oбычных услoвиях.
Атмoсфернoе давление в разных тoчках местнoсти мoжет значительнo oтличаться oт давления на метеoстанции, в зависимoсти oт услoвий рельефа (при пoдъёме на 10 м давление пoнижается примернo на 1 мм рт.ст.).